Location: Silverdale
(47.6506°N, 122.6941°W)
Time: 04:56:38
(UTC+00:00)

Altair - Pass Details

Date: 09 October 2022
Orbit: 1501 x 1682 km, 47.2° (Epoch: 04 December)

Event Time Altitude Azimuth Distance (km) Brightness Sun altitude
Rises 18:07:22 0° 291° (WNW) 4,883 9.7 30.6°
Reaches altitude 10° 18:10:50 10° 283° (WNW) 3,913 9.3 31.0°
Maximum altitude 18:19:33 35° 223° (SW) 2,471 9.1 31.7°
Drops below altitude 10° 18:28:20 10° 163° (SSE) 3,934 11.1 32.4°
Sets 18:31:50 0° 154° (SSE) 4,912 11.3 32.6°
